SCP
0 0 0 0 0 0 0 0 0 0 0 0 0 0 0 0 0 0 0 0 0 0 0 0 0 0 0 0 0 0 0 0 0 0 0 0 0 0 0 0 0 0 0
0 0 0 0 0 0 0 0 0 0 0 0 0 0 0 0 0 0 0 0 0 0 0 0 0 0 0 0 0 0 0 0 0 0 0 0 0 0 0 0 0 0 0
0 0 0 0 0 0 0 0 0 0 0 0 0 0 0 0 0 0 0 0 0 0 0 0 0 0 0 0 0 0 0 0 0 0 0 0 0 0 0 0 0 0 0
0 0 0 0 0 0 0 0 0 0 0 0 0 0 0 0 0 0 0 0 0 0 0 0 0 0 0 0 0 0 0 0 0 0 0 0 0 0 0 0 0 0 0
0 0 0 0 0 0 0 0 0 0 0 0 0 0 0 0 0 0 0 0 0 0 0 0 0 0 0 0 0 0 0 0 0 0 0 0 0 0 0 0 0 0 0
0 0 0 0 0 0 0 0 0 0 0 0 0 0 0 0 0 0 0 0 0 0 0 0 0 0 0 0 0 0 0 0 0 0 0 0 0 0 0 0 0 0 0
0 0 0 0 0 0 0 0 0 0 0 0 0 0 0 0 0 0 0 0 0 0 0 0 0 0 0 0 0 0 0 0 0 0 0 0 0 0 0 0 0 0 0
0 0 0 0 0 0 0 0 0 0 0 0 0 0 0 0 0 0 0 0 0 0 0 0 0 0 0 0 0 0 0 0 0 0 0 0 0 0 0 0 0 0 0
0 0 0 0 0 0 0 0 0 0 0 0 0 0 0 0 0 0 0 0 0 0 0 0 0 0 0 0 0 0 0 0 0 0 0 0 0 0 0 0 0 0 0
0 0 0 0 0 0 0 0 0 0 0 0 0 0 0 0 0 0 0 0 0 0 0 0 0 0 0 0 0 0 0 0 0 0 0 0 0 0 0 0 0 0 0
0 0 0 0 0 0 0 0 0 0 0 0 0 0 0 0 0 0 0 0 0 0 0 0 0 0 0 0 0 0 0 0 0 0 0 0 0 0 0 0 0 0 0
0 0 0 0 0 0 0 0 0 0 0 0 0 0 0 0 0 0 0 0 0 0 0 0 0 0 0 0 0 0 0 0 0 0 0 0 0 0 0 0 0 0 0
0 0 0 0 0 0 0 0 0 0 0 0 0 0 0 0 0 0 0 0 0 0 0 0 0 0 0 0 0 0 0 0 0 0 0 0 0 0 0 0 0 0 0
0 0 0 0 0 0 0 0 0 0 0 0 0 0 0 0 0 0 0 0 0 0 0 0 0 0 0 0 0 0 0 0 0 0 0 0 0 0 0 0 0 0 0
0 0 0 0 0 0 0 0 0 0 0 0 0 0 0 0 0 0 0 0 0 0 0 0 0 0 0 0 0 0 0 0 0 0 0 0 0 0 0 0 0 0 0
0 0 0 0 0 0 0 0 0 0 0 0 0 0 0 0 0 0 0 0 0 0 0 0 0 0 0 0 0 0 0 0 0 0 0 0 0 0 0 0 0 0 0
0 0 0 0 0 0 0 0 0 0 0 0 0 0 0 0 0 0 0 0 0 0 0 0 0 0 0 0 0 0 0 0 0 0 0 0 0 0 0 0 0 0 0
0 0 0 0 0 0 0 0 0 0 0 0 0 0 0 0 0 0 0 0 0 0 0 0 0 0 0 0 0 0 0 0 0 0 0 0 0 0 0 0 0 0 0
0 0 0 0 0 0 0 0 0 0 0 0 0 0 0 0 0 0 0 0 0 0 0 0 0 0 0 0 0 0 0 0 0 0 0 0 0 0 0 0 0 0 0
0 0 0 0 0 0 0 0 0 0 0 0 0 0 0 0 0 0 0 0 0 0 0 0 0 0 0 0 0 0 0 0 0 0 0 0 0 0 0 0 0 0 0
0 0 0 0 0 0 0 0 0 0 0 0 0 0 0 0 0 0 0 0 0 0 0 0 0 0 0 0 0 0 0 0 0 0 0 0 0 0 0 0 0 0 0
0 0 0 0 0 0 0 0 0 0 0 0 0 0 0 0 0 0 0 0 0 0 0 0 0 0 0 0 0 0 0 0 0 0 0 0 0 0 0 0 0 0 0
0 0 0 0 0 0 0 0 0 0 0 0 0 0 0 0 0 0 0 0 0 0 0 0 0 0 0 0 0 0 0 0 0 0 0 0 0 0 0 0 0 0 0
0 0 0 0 0 0 0 0 0 0 0 0 0 0 0 0 0 0 0 0 0 0 0 0 0 0 0 0 0 0 0 0 0 0 0 0 0 0 0 0 0 0 0
0 0 0 0 0 0 0 0 0 0 0 0 0 0 0 0 0 0 0 0 0 0 0 0 0 0 0 0 0 0 0 0 0 0 0 0 0 0 0 0 0 0 0
0 0 0 0 0 0 0 0 0 0 0 0 0 0 0 0 0 0 0 0 0 0 0 0 0 0 0 0 0 0 0 0 0 0 0 0 0 0 0 0 0 0 0
Wind_Speed
5 4 3 3 2 2 1 1 2 2 2 1 1 1 1 1 1 1 2 1 1 1 1 1 2 2 2 2 3 2 2 2 1 1 1 1 1 0 0 0 0 1 1
5 4 4 3 3 2 2 1 1 2 2 1 1 1 1 1 1 1 1 1 1 1 1 1 1 1 2 3 3 3 2 1 2 1 1 1 1 1 0 0 0 0 0
7 5 4 4 3 3 3 2 2 2 2 2 2 2 1 1 1 0 0 1 1 0 0 1 1 1 2 3 4 4 3 3 3 2 2 2 3 1 1 2 2 1 1
6 5 5 4 4 3 2 2 2 2 2 2 3 3 2 2 2 1 1 1 0 0 0 1 1 1 2 2 3 3 3 3 3 2 2 2 1 2 2 2 3 3 3
6 6 5 5 4 3 2 2 2 1 1 2 3 4 3 2 2 2 2 1 1 1 0 1 1 2 2 2 3 3 3 3 4 3 2 2 2 3 3 3 3 3 3
6 5 4 4 3 3 2 2 2 1 1 1 2 4 3 3 3 3 2 2 1 1 1 1 2 2 2 3 3 4 5 4 4 3 3 3 3 3 3 3 3 4 3
6 5 4 3 3 3 2 2 2 2 2 2 2 3 3 4 4 3 3 2 2 2 2 2 2 3 3 3 3 4 4 5 5 5 4 4 3 3 3 3 3 3 3
5 5 4 3 3 3 3 3 3 2 2 2 2 2 2 3 2 3 2 3 2 2 3 3 3 3 3 3 4 3 4 4 5 5 5 4 3 3 3 3 3 3 3
5 5 4 3 3 3 3 3 3 2 2 2 2 2 2 2 3 3 3 2 2 2 3 3 3 4 4 4 4 3 4 4 4 5 5 4 3 3 3 4 4 4 5
4 4 4 4 3 3 2 2 3 3 2 2 2 2 2 2 2 3 3 3 3 3 3 3 3 4 4 4 4 4 4 5 5 4 5 5 4 4 4 4 4 5 5
4 4 4 4 3 3 3 3 3 2 2 2 2 2 2 2 2 3 3 3 3 3 3 3 4 4 4 4 4 5 5 5 5 5 5 6 5 4 4 4 4 5 5
4 3 3 3 3 3 3 3 2 2 2 2 2 2 2 2 2 2 3 3 3 3 3 3 4 4 4 4 5 5 5 5 6 6 6 6 5 6 5 5 5 5 5
3 3 3 3 3 3 3 3 3 3 2 2 2 2 2 2 2 2 2 2 3 3 3 3 4 4 4 5 5 5 5 6 6 6 7 6 6 6 5 6 5 5 5
3 3 3 3 2 2 2 2 2 2 2 3 3 3 3 3 3 2 2 2 3 3 3 3 4 4 4 5 5 5 6 6 6 7 7 7 7 7 7 6 6 5 5
3 3 3 2 2 2 2 2 2 2 2 2 3 3 3 3 2 2 2 2 3 3 3 3 4 4 4 4 5 6 6 6 7 7 7 8 9 9 8 6 6 6 6
3 3 2 2 2 2 2 2 2 2 2 2 2 2 2 2 1 1 1 2 2 2 2 3 4 4 4 6 8 7 6 6 7 7 7 7 8 10 11 12 11 10 9
3 2 2 2 2 2 2 2 2 2 2 2 2 2 1 1 1 1 1 2 3 3 3 3 4 5 5 7 8 9 6 6 7 7 7 6 7 9 8 10 11 12 14
2 2 1 1 2 2 2 2 1 1 1 1 2 2 2 2 2 1 2 2 3 3 3 3 4 5 6 8 8 9 7 7 7 8 8 8 8 7 8 8 8 9 10
1 1 1 1 1 1 2 1 1 1 1 2 2 3 2 2 2 2 3 3 3 3 3 3 4 5 6 8 8 7 5 6 7 8 8 9 8 10 11 9 9 9 9
1 1 1 1 1 1 1 1 1 1 2 3 3 3 3 3 3 3 3 3 3 3 3 4 4 5 6 7 7 7 4 5 6 6 7 10 11 12 12 9 9 10 9
1 1 1 1 1 1 1 1 1 2 3 3 3 3 3 3 3 3 3 3 3 3 3 4 4 5 6 7 8 8 5 5 5 5 5 6 11 13 12 11 9 10 9
1 1 1 1 1 1 1 1 2 3 3 3 3 3 3 3 2 3 3 3 3 3 3 3 4 4 5 6 7 9 8 7 6 6 5 6 10 12 12 10 10 11 9
1 1 1 1 2 2 1 2 3 3 3 3 3 3 3 3 3 3 3 3 3 3 3 3 4 4 4 5 8 9 10 10 7 6 9 10 11 11 9 10 11 9 6
1 1 1 1 2 2 2 2 3 3 2 3 3 3 3 3 2 2 2 2 3 3 3 3 4 4 4 4 5 5 6 8 7 6 8 11 11 9 8 7 6 5 5
1 1 1 2 2 2 3 3 2 2 3 3 3 3 3 3 3 3 3 3 3 4 4 4 4 5 5 6 8 7 5 5 6 6 4 4 4 4 4 4 4 4 4
1 1 1 2 2 3 3 3 3 2 3 3 3 3 3 3 3 3 3 5 6 7 8 8 7 6 8 10 10 10 9 9 8 5 4 4 4 4 4 4 4 4 4
Wind_Direction
215 201 194 192 184 168 147 133 153 139 129 134 142 139 115 84 70 54 37 30 52 75 103 121 151 161 159 150 148 133 132 127 136 121 81 34 27 34 58 74 148 115 115
216 206 197 195 197 190 175 170 185 171 161 163 169 165 135 113 72 64 37 14 41 85 115 132 155 177 168 161 161 157 164 169 187 186 186 200 205 196 211 200 180 206 202
218 214 208 206 205 205 202 200 208 201 184 176 160 133 123 122 150 132 103 353 358 61 141 161 160 183 182 183 182 185 183 189 201 213 226 214 215 214 199 213 211 214 228
215 216 216 213 214 214 203 200 210 209 200 178 183 178 187 198 214 211 202 209 224 161 180 177 180 190 202 196 197 203 210 206 202 209 252 271 243 217 208 207 215 222 230
213 214 219 218 217 212 195 191 200 199 201 203 197 196 201 206 198 198 195 194 191 200 193 204 201 203 213 210 211 209 213 219 221 217 219 228 238 240 228 229 227 226 225
210 212 218 216 209 201 185 183 187 187 191 215 217 205 197 196 194 201 199 201 200 216 214 224 223 221 222 218 218 215 216 223 227 234 229 221 214 217 228 234 233 239 236
203 205 206 202 201 196 185 188 191 194 198 207 220 221 202 200 206 207 205 210 214 230 230 237 235 234 233 230 228 221 219 223 227 230 235 234 238 233 235 231 241 253 263
202 207 209 202 202 200 195 193 199 204 206 210 219 224 221 211 213 221 220 220 230 240 242 241 239 242 239 234 228 227 225 224 228 235 238 239 236 231 228 232 234 249 252
209 209 208 209 208 204 204 208 209 213 216 218 223 223 226 230 221 220 224 225 236 245 239 246 244 241 236 232 229 228 226 225 226 233 235 239 240 237 239 238 233 235 245
210 208 208 212 213 211 211 214 213 214 219 220 223 231 234 240 242 228 223 226 232 238 239 244 246 246 245 237 232 232 230 228 229 232 235 238 238 234 235 235 236 242 249
213 214 216 213 210 206 208 215 217 218 218 221 226 233 231 234 241 242 234 232 231 233 239 244 247 248 247 243 239 238 236 235 233 233 235 240 241 239 234 233 233 235 242
216 214 215 213 212 209 210 215 219 222 227 223 224 234 232 231 242 253 248 241 236 233 233 237 244 247 248 244 239 240 240 241 241 238 238 242 241 243 239 234 233 235 236
213 217 217 220 224 222 216 217 218 224 229 224 221 232 231 235 250 259 265 257 247 244 239 234 239 246 248 249 248 244 245 247 249 245 239 240 238 244 243 237 237 238 238
219 227 235 236 239 247 232 228 229 226 225 222 221 231 237 240 255 261 266 273 258 248 245 243 243 248 250 250 251 250 249 251 251 251 245 242 239 241 243 241 240 239 238
241 239 242 254 250 260 258 243 242 237 229 224 230 242 247 247 245 247 266 279 273 260 256 253 251 249 250 249 251 253 250 251 252 253 251 245 245 245 247 242 238 235 234
250 246 246 261 259 263 271 260 251 250 235 230 248 258 243 237 241 256 271 282 284 281 274 262 257 254 257 261 259 263 256 254 253 253 256 252 248 248 252 250 246 241 236
252 243 245 263 271 276 280 274 269 259 237 243 268 285 271 258 262 270 281 283 283 284 277 275 271 269 270 267 261 261 262 255 252 253 254 254 250 251 251 248 250 248 246
254 254 258 282 301 307 305 306 297 260 246 268 290 302 300 287 287 279 274 280 280 282 282 282 283 283 279 275 269 264 263 258 254 254 252 253 251 248 251 249 250 251 246
275 281 280 283 311 322 321 327 322 302 286 292 299 304 299 287 284 280 283 283 287 286 285 286 286 287 285 279 276 272 267 261 260 258 255 253 252 251 251 249 249 254 255
23 11 20 15 359 347 348 344 319 307 299 302 304 303 295 280 276 278 282 285 285 284 291 291 293 293 291 285 282 278 271 268 268 265 260 254 254 255 251 247 246 249 253
47 42 49 12 347 346 342 320 311 305 308 310 308 305 298 286 281 284 285 287 288 288 289 289 292 292 294 286 283 281 278 272 273 272 267 260 260 259 254 254 250 253 255
46 36 23 356 349 338 312 309 311 316 317 314 309 306 304 299 294 291 292 291 289 286 288 291 295 296 297 293 284 285 286 284 274 272 275 271 268 263 260 259 262 261 258
340 349 339 335 336 335 322 305 314 322 317 311 308 308 312 306 301 293 291 290 287 286 292 295 298 303 305 300 291 288 289 285 279 274 278 279 275 269 262 262 266 260 251
312 323 329 320 328 339 331 312 313 313 306 304 307 309 310 310 302 294 286 283 282 284 289 294 297 301 301 302 304 296 287 283 280 280 275 272 271 271 271 267 263 258 255
309 315 308 307 315 326 324 322 317 313 304 301 301 302 301 303 297 288 282 283 278 285 289 288 290 293 295 304 311 311 303 297 293 293 283 278 272 270 271 270 268 266 260
300 307 304 304 311 315 314 317 317 309 299 297 299 298 298 297 295 292 291 285 286 291 291 293 294 292 297 304 303 303 306 307 304 293 282 282 284 283 281 277 274 271 267